Regional Weather Roundup
Issued by NWS

Home | Current Version | Previous Version | Graphics & Text | Print | Product List | Glossary Off
Versions: 1 2 3 4 5 6 7 8 9 10 11 12 13 14 15 16 17 18 19 20 21 22 23 24 25 26 27 28 29 30 31 32 33 34 35 36 37 38 39 40 41 42 43 44 45 46 47 48 49 50

000
ASUS45 KSLC 181110
RWRUT

UTAH REGIONAL WEATHER ROUNDUP
NATIONAL WEATHER SERVICE SALT LAKE CITY UT
400 AM MST THU DEC 18 2014

UTZ001>011-023>025-181200-

NORTHERN UTAH

CITY           SKY/WX    TMP DP  RH WIND       PRES   REMARKS
BRIGHAM CITY   CLOUDY    31  27  84 CALM      30.09R
HILL AFB       CLOUDY    32  25  74 E9        30.07S WCI  24
LOGAN          CLOUDY    28  25  88 SW3       30.07S
OGDEN          PTCLDY    28  24  85 S6        30.07S WCI  22
PROVO AIRPORT  PTCLDY    34  30  86 E3        30.09S
SALT LAKE CITY MOCLDY    32  29  88 SE6       30.07S WCI  26
VERNAL         CLOUDY    25  23  92 SE5       30.11F WCI  19
WENDOVER       PTCLDY    21  16  79 CALM      30.08F
HEBER CITY     CLOUDY    30  25  80 CALM      30.07S
WEST JORDAN    CLOUDY    34  34 100 S9        30.08S WCI  26

$$

UTZ012>022-026-027-181200-

SOUTHERN/CENTRAL UTAH

CITY           SKY/WX    TMP DP  RH WIND       PRES   REMARKS
BLANDING       CLOUDY    32  32 100 CALM      30.16S
BRYCE CANYON   CLOUDY    22  19  89 SW7       30.06F WCI  13
CEDAR CITY     CLOUDY    32  31  96 CALM      30.06S
DELTA          MOCLDY    31  30  98 CALM      30.07S
MILFORD        CLOUDY    34  31  88 SW9       30.06S WCI  27
MOAB/CYNLANDS  CLOUDY    33  33 100 CALM      30.08S
PRICE          CLOUDY    26  22  84 CALM      30.06S
ST GEORGE      CLOUDY    43  37  81 SE3       30.12S
KANAB            N/A     34  34 100 CALM      30.13F

$$

REGIONAL REPORTS     COLORADO/ARIZONA

CITY           SKY/WX    TMP DP  RH WIND       PRES   REMARKS
CRAIG, CO      CLOUDY    26  24  92 W3        30.08S FOG
GRAND JUNCTION LGT SNOW  32  32 100 N7        30.08S FOG     WCI  26
RIFLE          LGT SNOW  32  31  96 CALM      30.06S FOG
MONTROSE       LGT SNOW  32  32 100 CALM      30.09S FOG
CORTEZ         CLOUDY    32  32 100 NE3       30.10S
PAGE, AZ       CLOUDY    38  33  82 CALM      30.09S
GRAND CANYON   CLOUDY    30  30 100 CALM      30.09F
KINGMAN        CLOUDY    39  36  89 SE7       30.10S WCI  34
FLAGSTAFF      CLOUDY    30  27  88 CALM      30.07F

$$

REGIONAL REPORTS    NEVADA/IDAHO/WYOMING

CITY           SKY/WX    TMP DP  RH WIND       PRES   REMARKS
LAS VEGAS, NV  MOCLDY    47  42  83 S8        30.05S
ELY            LGT SNOW  24  21  88 S8        30.07S FOG     WCI  15
ELKO           CLOUDY    26  24  92 E5        30.08R WCI  20
POCATELLO, ID  CLEAR     21  20  96 N5        30.08R WCI  15
BURLEY         CLEAR     26  21  81 CALM      30.05S
EVANSTON, WY   PTCLDY    23  20  88 SW3       30.03F
ROCK SPRINGS   PTCLDY    18  14  84 SW10      30.03S WCI   6

$$



USA.gov is the U.S. government's official web portal to all federal, state and local government web resources and services.